Tracking 19224 objects as of 22-Jul-2018
HD Live streaming from Space Station
objects crossing your sky now

COSMOS 1361

Track COSMOS 1361 now!
10-day predictions
COSMOS 1361 is classified as:


NORAD ID: 13164
Int'l Code: 1982-040E
Perigee: 1,468.3 km
Apogee: 1,490.3 km
Inclination: 74.0 °
Period: 115.4 minutes
Semi major axis: 7850 km
RCS: 0.6957 m2 (medium)
Launch date: May 6, 1982
Source: Commonwealth of Independent States (former USSR) (CIS)
Launch site: PLESETSK MISSILE AND SPACE COMPLEX (PKMTR)
aabbcc
Your satellite tracking list
Your tracking list is empty




NASA's NSSDC Master Catalog

Two Line Element Set (TLE):
1 13164U 82040E   18202.63546260 -.00000019 +00000-0 -21117-4 0  9992
2 13164 074.0104 253.8700 0014003 175.9548 298.7389 12.48166090649816
Source of the keplerian elements: AFSPC